Regional Weather Roundup
Issued by NWS Wilmington, NC

Home | Current Version | Previous Version | Text Only | Print | Product List | Glossary On
Versions: 1 2 3 4 5 6 7 8 9 10 11 12 13 14 15 16 17 18 19 20 21 22 23 24 25 26 27
000
ASUS42 KILM 202310
RWRILM
RWRILM
REGIONAL HOURLY WEATHER ROUNDUP
NATIONAL WEATHER SERVICE WILMINGTON NC
700 PM EDT SUN APR 20 2014

NOTE: "FAIR" INDICATES FEW OR NO CLOUDS BELOW 12,000 FEET WITH NO
SIGNIFICANT WEATHER AND/OR OBSTRUCTIONS TO VISIBILITY.

...............WFO WILMINGTON COUNTY WARNING AREA...............

......COASTAL NC AND SC COUNTIES......

CITY           SKY/WX    TMP DP  RH WIND       PRES   REMARKS
WILMINGTON     CLOUDY    57  52  83 N23G37    30.06S
SOUTHPORT      CLOUDY    56  52  85 N20G30    30.05R
N MYRTLE BEACH CLOUDY    61  52  72 NE18G29   30.06S
MYRTLE BEACH   CLOUDY    63  52  67 N21G29    30.06S

......INLAND NC AND SC COUNTIES.......

CITY           SKY/WX    TMP DP  RH WIND       PRES   REMARKS
LUMBERTON      CLOUDY    62  50  64 NE13G23   30.13S
ELIZABETHTOWN  CLOUDY    59  48  67 N6G17     30.13F
WHITEVILLE     CLOUDY    60  51  71 N9G21     30.09F
FLORENCE       CLOUDY    65  50  58 NE14      30.12S
DARLINGTON     CLOUDY    64  46  52 N10       30.15S

....................REST OF NORTH CAROLINA......................

.........EASTERN NC.........

CITY           SKY/WX    TMP DP  RH WIND       PRES   REMARKS
CAPE HATTERAS  LGT RAIN  50  50 100 NE18G32   30.07F FOG
JACKSONVILLE   CLOUDY    54  54 100 N17G29    30.12S
MOREHEAD CITY  LGT RAIN  54  52  93 NE29G40   30.05F
KENANSVILLE    CLOUDY    58  46  66 N21G30    30.15F
NEW BERN       CLOUDY    55  50  83 N17G31    30.13F
ELIZABETH CITY CLOUDY    49  42  77 N22G31    30.21F

.........CENTRAL NC.........

CITY           SKY/WX    TMP DP  RH WIND       PRES   REMARKS
RALEIGH DURHAM CLOUDY    63  43  48 NE14      30.21S
ROCKY MOUNT    CLOUDY    59  38  45 NE10      30.21F
ROANOKE RAPIDS NOT AVBL
FAYETTEVILLE   CLOUDY    62  47  57 NE15G24   30.15S
HOFFMAN        PTSUNNY   65  47  51 NE8G17    30.17S

.........WESTERN NC.........

CITY           SKY/WX    TMP DP  RH WIND       PRES   REMARKS
CHARLOTTE      MOSUNNY   68  32  26 NE9       30.19S
GREENSBORO     MOSUNNY   65  32  29 NE15      30.20F
HICKORY        NOT AVBL
BOONE          NOT AVBL
ASHEVILLE      NOT AVBL

.....................REST OF SOUTH CAROLINA.....................

.........EASTERN SC.........

CITY           SKY/WX    TMP DP  RH WIND       PRES   REMARKS
CHARLESTON     CLOUDY    65  51  60 N13       30.08F
BEAUFORT MCAS  CLOUDY    66  51  58 NE12      30.09F
HILTON HEAD    NOT AVBL

.........CENTRAL SC.........

CITY           SKY/WX    TMP DP  RH WIND       PRES   REMARKS
COLUMBIA       CLOUDY    68  40  35 N9        30.15S
ORANGEBURG     CLOUDY    66  45  46 NE14      30.13S
SUMTER SHAW    CLOUDY    65  43  44 N12       30.12S

.........WESTERN SC.........

CITY           SKY/WX    TMP DP  RH WIND       PRES   REMARKS
GREENVILLE     NOT AVBL
ROCK HILL      CLOUDY    70  32  24 NE6       30.18S
ANDERSON       SUNNY     70  34  26 E13       30.16F
CLEMSON        NOT AVBL
GREENWOOD      MOSUNNY   71  34  25 NE9       30.17F


...................COASTAL AND OFFSHORE REPORTS..................

................LOCAL PIERS AND NC RESERVE................


STATION/POSITION TIME  SKY/WX   TEMP    WIND        PRES    VSBY
                                AIR SEA DIR/SP/G
                 (UTC)          (F)     (DEG/KT/KT) (MB)    (MI)
JOHNY MRCER PIER 2300            56 60   10/ 23/ 33 1016.5F
NC RESRV MASNBRO 2200            57      10/ 10     1016.0S
OCEAN CREST PIER 2300            57 60   20/ 14/ 21 1016.2R
SPRINGMAID  PIER 2300            62 60   10/  9/ 13 1017.9R


................COASTAL AND OFFSHORE BUOYS................


STATION/POSITION TIME  SKY/WX   TEMP    WIND        PRES    VSBY
                                AIR SEA DIR/SP/G
                 (UTC)          (F)     (DEG/KT/KT) (MB)    (MI)
DIMNDSHOAL 41025 2300            61 76   10/ 29/ 35 1015.3S
WVE H/P(F/S)= 16/11 WND WVE H/P(F/S)= 11/ 8 SWL H/P/D(F/S/D)= 11/ 60/11

CAPE LOOKOUT     2200            54      10/ 27/ 32 1017.1F
ONSLOW BAY 41036 2200            58 66   30/ 35/ 43 1014.6R
5 WRITEBCH 41038 2200            58 58   20/ 23/ 31 1015.4F
MASONBORO  41110 2300               58                N/A
WVE H/P(F/S)=  8/ 7 WND WVE H/P(F/S)=  7/ 7 SWL H/P/D(F/S/D)=  2/ 80/11

WILM HARBR 41108 2300               60                N/A
WVE H/P(F/S)=  5/ 4 WND WVE H/P(F/S)=  5/ 4 SWL H/P/D(F/S/D)=  2/150/11

27WRITEBCH 41037 2200            55      30/ 33/ 41 1013.7F
FRYING PAN 41013 2300            60 68   30/ 35/ 43 1013.6S
WVE H/P(F/S)= 12/ 7 WND WVE H/P(F/S)= 11/ 7 SWL H/P/D(F/S/D)=  2/ 30/11

SUNST NRSH 41024 2200            60     310/ 23/ 27 1016.7F
CAPRS NRSH 41029 NOT AVBL
EDISTO     41004 NOT AVBL


..........OFFSHORE BUOYS BEYOND 100 NM OFFSHORE...........
.....IN A TRIANGLE---HAT TO BERMUDA TO BAHAMAS TO HAT.....


STATION/POSITION TIME  SKY/WX   TEMP    WIND        PRES    VSBY
                                AIR SEA DIR/SP/G
                 (UTC)          (F)     (DEG/KT/KT) (MB)    (MI)
150E HAT   41001 NOT AVBL
W BERMUDA  41048 2151            72 70  160/ 12/ 14 1015.2F
WVE H/P(F/S)=  6/ 6 WND WVE H/P(F/S)=  3/ 3 SWL H/P/D(F/S/D)=  5/170/ 6

ATLANTIC S 41049 2239            76 76  150/  6/  8 1022.0R
WVE H/P(F/S)=  5/ 7 WND WVE H/P(F/S)=  2/ 4 SWL H/P/D(F/S/D)=  5/120/ 7

E BAHAMAS  41046 2148            79 79  150/ 16/ 19 1017.5S
WVE H/P(F/S)=  7/ 8 WND WVE H/P(F/S)=  7/ 6 SWL H/P/D(F/S/D)=  5/ 8

NE BAHAMAS 41047 2220            73 74  190/ 23/ 27 1013.5F
WVE H/P(F/S)=  7/ 7 WND WVE H/P(F/S)=  7/ 7

120E CANVRL41010 2300            73 76  340/ 19/ 23 1013.7R
WVE H/P(F/S)=  7/ 9 WND WVE H/P(F/S)=  5/ 7 SWL H/P/D(F/S/D)=  5/ 50/ 9


END



USA.gov is the U.S. government's official web portal to all federal, state and local government web resources and services.